Imperial, NE

8:48 AM MDT on March 23, 2017 (GMT -0600)
Imperial Municipal

Weather History for KIML - November, 2012

Change the Weather History Date:

Thursday, November 8, 2012

  Actual Average Record
Temperature  
Mean Temperature 46 °F 41 °F  
Max Temperature 63 °F 55 °F 84 °F (2006)
Min Temperature 29 °F 27 °F 15 °F (1914)
Degree Days  
Heating Degree Days 19 24  
Month to date heating degree days 140 180  
Cooling Degree Days 0 0  
Month to date cooling degree days 0 0  
Year to date cooling degree days 1382 963  
Moisture  
Dew Point 31 °F    
Average Humidity 60    
Maximum Humidity 85    
Minimum Humidity 34    
Precipitation  
Precipitation 0.00 in 0.02 in 0.63 in (1970)
Sea Level Pressure  
Sea Level Pressure 29.89 in    
Wind  
Wind Speed 10 mph (NE)    
Max Wind Speed 23 mph    
Max Gust Speed 29 mph    
Visibility 10 miles    
Events      
T = Trace of Precipitation, MM = Missing Value Source: NWS Daily Summary

Daily Weather History Graph

Daily Weather History Graph

Search for Another Location

Airport or City:

Trip Planner

Search our weather history database for the weather conditions in past years. The results will help you decide how hot, cold, wet, or windy it might be!

Date:

Astronomy

Nov. 08, 2012 Rise Set
Actual Time 6:25 AM MST 4:34 PM MST
Civil Twilight 5:56 AM MST 5:03 PM MST
Nautical Twilight 5:23 AM MST 5:36 PM MST
Astronomical Twilight 4:51 AM MST 6:08 PM MST
Moon 12:21 AM MST (11/8) 1:18 PM MST (11/8)
Length of Visible Light 11h 07m
Length of Day
10h 09m
Waning Crescent, 32% of the Moon is Illuminated
Nov 8
Waning Crescent
Nov 13
New
Nov 20
First Quarter
Nov 28
Full
Dec 6
Last Quarter

Hourly Weather History & Observations

Time (MST) Temp. Windchill Dew Point Humidity Pressure Visibility Wind Dir Wind Speed Gust Speed Precip Events Conditions
12:53 AM 37.9 °F 34.4 °F 30.9 °F 76% 29.85 in 10.0 mi NNW 4.6 mph - N/A   Clear
1:53 AM 32.0 °F 28.7 °F 28.0 °F 85% 29.86 in 10.0 mi South 3.5 mph - N/A   Clear
2:53 AM 32.0 °F - 28.0 °F 85% 29.84 in 10.0 mi Calm Calm - N/A   Clear
3:53 AM 32.0 °F 28.7 °F 27.0 °F 82% 29.85 in 10.0 mi West 3.5 mph - N/A   Clear
4:53 AM 36.0 °F 30.3 °F 28.9 °F 76% 29.87 in 10.0 mi West 6.9 mph - N/A   Clear
5:53 AM 32.0 °F 27.5 °F 27.0 °F 82% 29.90 in 10.0 mi West 4.6 mph - N/A   Clear
6:53 AM 35.1 °F 28.6 °F 27.0 °F 72% 29.93 in 10.0 mi NW 8.1 mph - N/A   Clear
7:53 AM 46.0 °F 39.3 °F 30.0 °F 54% 29.94 in 10.0 mi North 16.1 mph - N/A   Clear
8:53 AM 51.1 °F - 34.0 °F 52% 29.93 in 10.0 mi North 21.9 mph 28.8 mph N/A   Clear
9:53 AM 55.0 °F - 34.0 °F 45% 29.95 in 10.0 mi North 19.6 mph 26.5 mph N/A   Clear
10:53 AM 57.9 °F - 34.0 °F 41% 29.93 in 10.0 mi North 19.6 mph - N/A   Clear
11:53 AM 60.1 °F - 34.0 °F 38% 29.89 in 10.0 mi NNE 16.1 mph - N/A   Clear
12:53 PM 62.1 °F - 34.0 °F 35% 29.87 in 10.0 mi NNE 16.1 mph 23.0 mph N/A   Clear
1:53 PM 62.1 °F - 34.0 °F 35% 29.88 in 10.0 mi NE 13.8 mph - N/A   Clear
2:53 PM 62.1 °F - 34.0 °F 35% 29.89 in 10.0 mi NE 10.4 mph - N/A   Clear
3:53 PM 59.0 °F - 34.0 °F 39% 29.90 in 10.0 mi ENE 12.7 mph - N/A   Clear
4:53 PM 46.9 °F - 32.0 °F 56% 29.92 in 10.0 mi NE 9.2 mph - N/A   Unknown
5:53 PM 45.0 °F 40.1 °F 33.1 °F 63% 29.93 in 10.0 mi ENE 9.2 mph - N/A   Clear
6:53 PM 44.1 °F 39.5 °F 33.1 °F 65% 29.93 in 10.0 mi ENE 8.1 mph - N/A   Clear
7:53 PM 39.9 °F 37.8 °F 32.0 °F 73% 29.91 in 10.0 mi SE 3.5 mph - N/A   Clear
8:53 PM 41.0 °F 37.1 °F 32.0 °F 70% 29.89 in 10.0 mi East 5.8 mph - N/A   Clear
9:53 PM 39.9 °F 35.8 °F 32.0 °F 73% 29.86 in 10.0 mi ESE 5.8 mph - N/A   Clear
10:53 PM 39.0 °F 34.0 °F 30.9 °F 73% 29.85 in 10.0 mi ESE 6.9 mph - N/A   Clear
11:53 PM 33.1 °F 30.0 °F 28.0 °F 82% 29.86 in 10.0 mi East 3.5 mph - N/A   Clear